[[{"header":{"parameterUnit":"m.s-1","parameterCategory":1,"la1":30.2992,"la2":30.254,"lo1":-89.0895,"lo2":-89.0443,"dy":0.0025,"dx":0.0025,"nx":19,"ny":19,"refTime":"2026-03-25T09:00:00:Z","depth":0,"parameterNumber":2,"parameterNumberName":"U-component_of_WINDS"},"data":[0,0,0,-2.0496,-2.0497,-2.0524,-2.0524,-2.0572,-2.0572,0,0,0,0,0,0,0,0,0,0,0,-2.0495,-2.0495,-2.0496,-2.0497,-2.0524,-2.0524,-2.0572,-2.0572,0,0,0,0,0,0,0,0,0,0,0,-2.0495,-2.0495,-2.0496,-2.0497,-2.0524,-2.0524,-2.0571,-2.0546,0,0,0,0,0,0,0,0,0,0,-2.0517,-2.0524,-2.0495,-2.0496,-2.0497,-2.0524,-2.0524,-2.0545,-2.0548,-2.0564,0,-2.0581,0,-2.0577,-2.0576,-2.0576,0,0,0,-2.0491,-2.0521,-2.0522,-2.0496,-2.0497,-2.0524,-2.051,-2.0546,-2.055,-2.0568,-2.0581,-2.0583,-2.0578,-2.0576,-2.0577,-2.0688,-2.0689,0,0,-2.049,-2.0504,-2.052,-2.0525,-2.0521,-2.0509,-2.0511,-2.0548,-2.0563,-2.0581,-2.0583,-2.0579,-2.0577,-2.0577,-2.0688,-2.0689,0,0,0,-2.0489,-2.0503,-2.0503,-2.0523,-2.0527,-2.051,-2.0512,-2.0562,-2.056,-2.0584,-2.0579,-2.0577,-2.0578,-2.0687,-2.0688,-2.074,0,0,0,-2.0488,-2.0502,-2.0502,-2.0511,-2.0527,-2.0545,-2.0525,-2.0558,-2.0562,-2.0579,-2.0577,-2.0578,-2.0686,-2.0687,-2.0737,-2.0763,0,0,0,-2.0491,-2.0503,-2.0509,-2.0512,-2.0524,-2.0544,-2.0544,-2.0558,-2.0559,-2.0576,-2.0579,-2.0685,-2.0687,-2.0734,-2.0758,-2.0797,0,0,0,-2.0498,-2.0555,-2.051,-2.0573,-2.0524,-2.0576,-2.0544,-2.0582,-2.0603,-2.0577,-2.0686,-2.0688,-2.0733,-2.0755,-2.0794,-2.0833,-2.085,0,0,-2.0578,-2.0565,-2.0601,-2.0561,-2.0625,-2.057,-2.0641,-2.0647,-2.0636,-2.0671,-2.0674,-2.0738,-2.0758,-2.0796,-2.0941,-2.0955,0,0,0,-2.0631,-2.0657,-2.0671,-2.0691,-2.0697,-2.0704,-2.0697,-2.0699,-2.0729,-2.0657,-2.0762,-2.0773,-2.0795,-2.0813,-2.0825,-2.0843,-2.0696,-2.0696,-2.0696,-2.0766,-2.0748,-2.0806,-2.0792,-2.0812,-2.0804,-2.0819,-2.082,-2.0797,-2.0822,-2.0833,-2.0922,-2.0944,-2.0953,-2.0972,-2.0851,-2.0851,-2.0851,-2.0851,-2.0883,-2.0917,-2.0884,-2.0928,-2.0909,-2.0945,-2.094,-2.0922,-2.0953,-2.0913,-2.0931,-2.0889,-2.0968,-2.0984,-2.0855,-2.0854,-2.0854,-2.0854,-2.0853,-2.0971,-2.0984,-2.0985,-2.1013,-2.1036,-2.1019,-2.105,-2.1031,-2.1014,-2.1032,-2.1042,-2.1041,-2.1038,-2.1038,-2.1038,-2.1038,-2.1039,-2.1039,-2.1039,-2.1062,-2.1061,-2.109,-2.1101,-2.1111,-2.1122,-2.1115,-2.1124,-2.113,-2.1114,-2.1114,-2.1088,-2.0979,-2.0953,-2.1044,-2.1043,-2.1042,-2.1042,-2.1042,-2.1189,-2.1157,-2.1202,-2.1213,-2.1223,-2.1248,-2.1222,-2.1244,-2.1249,-2.1265,-2.1235,-2.1157,-2.1143,-2.1133,-2.1111,-2.1238,-2.1238,-2.1238,-2.1238,-2.1264,-2.1254,-2.1296,-2.1314,-2.1329,-2.1311,-2.1363,-2.1357,-2.1346,-2.1348,-2.1326,-2.1295,-2.1286,-2.1278,-2.1265,-2.1244,-2.1402,-2.1402,-2.1402,-2.1342,-2.1333,-2.1381,-2.1369,-2.1375,-2.1381,-2.143,-2.1452,-2.1432,-2.1409,-2.1349,-2.1343,-2.1292,-2.1276,-2.1253,-2.1234,-2.1195,0,0]},{"header":{"parameterUnit":"m.s-1","parameterCategory":1,"la1":30.2992,"la2":30.254,"lo1":-89.0895,"lo2":-89.0443,"dy":0.0025,"dx":0.0025,"nx":19,"ny":19,"refTime":"2026-03-25T09:00:00:Z","depth":0,"parameterNumber":3,"parameterNumberName":"V-component_of_WINDS"},"data":[0,0,0,-0.181,-0.1809,-0.1745,-0.1745,-0.1673,-0.1672,0,0,0,0,0,0,0,0,0,0,0,-0.1837,-0.1836,-0.181,-0.1808,-0.1745,-0.1745,-0.1673,-0.1672,0,0,0,0,0,0,0,0,0,0,0,-0.1837,-0.1836,-0.1836,-0.1808,-0.1745,-0.1745,-0.1673,-0.1717,0,0,0,0,0,0,0,0,0,0,-0.1777,-0.181,-0.1836,-0.1836,-0.1808,-0.1745,-0.1745,-0.1719,-0.1714,-0.1706,0,-0.1704,0,-0.1687,-0.1668,-0.1668,0,0,0,-0.1802,-0.1814,-0.179,-0.1836,-0.1807,-0.1745,-0.1772,-0.1716,-0.1711,-0.17,-0.1702,-0.1699,-0.1686,-0.1668,-0.1667,-0.165,-0.165,0,0,-0.1805,-0.1829,-0.1794,-0.1787,-0.18,-0.1774,-0.177,-0.1713,-0.1716,-0.1702,-0.1697,-0.1685,-0.1667,-0.1667,-0.1649,-0.165,0,0,0,-0.182,-0.1832,-0.1809,-0.179,-0.1778,-0.1772,-0.1768,-0.1718,-0.1709,-0.1697,-0.1684,-0.1667,-0.1666,-0.1649,-0.165,-0.1685,0,0,0,-0.1822,-0.184,-0.1811,-0.1824,-0.178,-0.1748,-0.1775,-0.1713,-0.1706,-0.1684,-0.1667,-0.1666,-0.1649,-0.1649,-0.1684,-0.1698,0,0,0,-0.1838,-0.1842,-0.1836,-0.1826,-0.18,-0.1749,-0.1736,-0.1711,-0.1698,-0.1668,-0.1666,-0.1649,-0.1649,-0.1682,-0.1695,-0.17,0,0,0,-0.1861,-0.1868,-0.1837,-0.1838,-0.1801,-0.1772,-0.1736,-0.1713,-0.1691,-0.1667,-0.1649,-0.1649,-0.1682,-0.1694,-0.1699,-0.1709,-0.1715,0,0,-0.1882,-0.1871,-0.187,-0.1841,-0.1824,-0.178,-0.1767,-0.1723,-0.1697,-0.1666,-0.1665,-0.1684,-0.1695,-0.17,-0.1743,-0.1749,0,0,0,-0.1884,-0.1884,-0.1874,-0.1856,-0.1824,-0.1797,-0.1754,-0.1737,-0.171,-0.1687,-0.1686,-0.1692,-0.1694,-0.1697,-0.1702,-0.1701,-0.1652,-0.1652,-0.1652,-0.1947,-0.1916,-0.1911,-0.1872,-0.1854,-0.1809,-0.1791,-0.1761,-0.1732,-0.1733,-0.1723,-0.1754,-0.1759,-0.1762,-0.1762,-0.1726,-0.1726,-0.1726,-0.1726,-0.1975,-0.1969,-0.1932,-0.1915,-0.1881,-0.1865,-0.1821,-0.1801,-0.178,-0.1758,-0.1758,-0.1738,-0.1769,-0.1767,-0.1729,-0.1728,-0.1728,-0.1728,-0.1727,-0.2012,-0.2004,-0.1986,-0.1956,-0.1935,-0.1894,-0.1876,-0.1844,-0.1814,-0.1814,-0.18,-0.1799,-0.1794,-0.181,-0.181,-0.181,-0.181,-0.181,-0.181,-0.2059,-0.2037,-0.2027,-0.1994,-0.1978,-0.1952,-0.1907,-0.1889,-0.1861,-0.1839,-0.1838,-0.1809,-0.1779,-0.1772,-0.1811,-0.1811,-0.1811,-0.1811,-0.1811,-0.2098,-0.2084,-0.2069,-0.2053,-0.2011,-0.1993,-0.1953,-0.192,-0.19,-0.1892,-0.1863,-0.1846,-0.1831,-0.1827,-0.1821,-0.187,-0.187,-0.187,-0.187,-0.213,-0.212,-0.2097,-0.2074,-0.2047,-0.2009,-0.199,-0.1954,-0.1914,-0.1899,-0.1887,-0.1877,-0.1874,-0.1861,-0.1856,-0.185,-0.1906,-0.1906,-0.1906,-0.2152,-0.2138,-0.213,-0.2093,-0.2057,-0.2027,-0.2008,-0.198,-0.1931,-0.1906,-0.1887,-0.1886,-0.1868,-0.1864,-0.1839,-0.1832,-0.182,0,0]}]]